sat.trackr.live / text

‹ back to catalog

STARLINK-37066

NORAD 68081 · 2026-042N

PAYLOAD ACTIVE UNKNOWN

§ Identity

Operator
Country
US
Launch date
2026-03-04
Launch site
AFETR
Launch vehicle
Mass (kg)
RCS (m²)

Purposes: comms

External: N2YO · Heavens-Above · Gunter

§ Orbital elements

Epoch: 2026-09-19T06:16:50.286432Z

Period
93.85 min
Inclination
53.1611°
Eccentricity
0.0000891
Mean motion
15.34415392 rev/d
Perigee alt
462.0 km
Apogee alt
463.3 km
Semi-major
6,840.8 km
B*
7.5230e-4
RAAN
353.7878°
Arg perigee
10.7107°
Mean anomaly
349.3914°
Rev number
3,202

§ Raw data

STARLINK-370661 68081U 26042N   26262.26169313  .00025139  00000+0  75230-3 0  99952 68081  53.1611 353.7878 0000891  10.7107 349.3914 15.34415392 32024

JSON: /api/v1/satellites/68081 · /tle

For live sub-satellite position, see the globe view (requires WebGL).

§ Visibility from observer

Set your observer location to see the next 7 days of passes ≥ 10°. The values pass through the URL so the page stays shareable.

No JS? Fill the form by hand. The geolocation button needs JavaScript.